AA9VI-10 Weather Reports


time (UTC)temp
C
wind
direction
speed
KPH
gust
KPH
rain 1hr
cm
rain 24hr
cm
rain mn
cm
humidity
%
barometer
mb
20260906122016 19 0.0 0.0 0.00 0.00 0.00 92 1019.2
20260906121016 18 0.0 0.0 0.00 0.00 0.00 92 1019.1
20260906120016 18 0.0 0.0 0.00 0.00 0.00 92 1018.9
20260906115016 18 0.0 0.0 0.00 0.00 0.00 91 1018.7
20260906114016 18 0.0 0.0 0.00 0.00 0.00 91 1018.4
20260906113016 18 0.0 0.0 0.00 0.00 0.00 91 1018.3
20260906112016 18 0.0 0.0 0.00 0.00 0.00 91 1018.3
20260906111021 18 0.0 0.0 0.00 0.00 0.00 91 1018.4
20260906110016 18 0.0 0.0 0.00 0.00 0.00 91 1018.3
20260906105016 18 0.0 0.0 0.00 0.00 0.00 91 1018.2
20260906104016 18 0.0 1.6 0.00 0.00 0.00 91 1018.2
20260906103016 18 0.0 1.6 0.00 0.00 0.00 91 1018.1
20260906102016 18 0.0 0.0 0.00 0.00 0.00 91 1017.8
20260906101016 18 0.0 0.0 0.00 0.00 0.00 91 1018.0
20260906100016 18 0.0 0.0 0.00 0.00 0.00 91 1018.0
20260906095016 19 0.0 0.0 0.00 0.00 0.00 91 1017.9
20260906094016 18 0.0 0.0 0.00 0.00 0.00 91 1017.9
20260906093016 18 0.0 0.0 0.00 0.00 0.00 90 1017.9
20260906092016 19 0.0 0.0 0.00 0.00 0.00 90 1017.8
20260906091016 19 0.0 0.0 0.00 0.00 0.00 90 1017.9
20260906090016 19 0.0 0.0 0.00 0.00 0.00 90 1017.8
20260906085018 19 0.0 0.0 0.00 0.00 0.00 90 1017.7
20260906084016 19 0.0 0.0 0.00 0.00 0.00 90 1017.7
20260906083016 19 0.0 0.0 0.00 0.00 0.00 90 1017.7
20260906082016 19 0.0 0.0 0.00 0.00 0.00 89 1017.7
20260906081016 20 0.0 0.0 0.00 0.00 0.00 89 1017.6
20260906080016 20 0.0 0.0 0.00 0.00 0.00 89 1017.7
20260906075016 20 0.0 0.0 0.00 0.00 0.00 89 1017.6
20260906074016 20 0.0 0.0 0.00 0.00 0.00 89 1017.6
20260906073016 20 0.0 1.6 0.00 0.00 0.00 89 1017.6
20260906072016 20 0.0 0.0 0.00 0.00 0.00 89 1017.7
20260906071016 20 0.0 0.0 0.00 0.00 0.00 89 1017.7
20260906070016 20 0.0 0.0 0.00 0.00 0.00 89 1017.8
20260906065016 20 0.0 0.0 0.00 0.00 0.00 88 1017.8
20260906064016 20 0.0 0.0 0.00 0.00 0.00 88 1017.7
20260906063016 21 0.0 1.6 0.00 0.00 0.00 88 1017.8
20260906062016 21 0.0 0.0 0.00 0.00 0.00 88 1017.7
20260906061016 21 0.0 0.0 0.00 0.00 0.00 88 1017.8
20260906060016 21 0.0 0.0 0.00 0.00 0.00 88 1017.8
20260906055016 21 0.0 0.0 0.00 0.00 0.00 88 1017.9
20260906054016 21 0.0 0.0 0.00 0.00 0.00 88 1017.9
20260906053016 21 0.0 0.0 0.00 0.00 0.00 88 1017.8
20260906052016 21 0.0 0.0 0.00 0.00 0.00 88 1017.6
20260906051016 21 0.0 0.0 0.00 0.00 0.00 88 1017.5
20260906050016 21 0.0 0.0 0.00 0.00 0.00 88 1017.4
20260906045017 21 0.0 3.2 0.00 0.00 0.00 88 1017.5
20260906044017 21 0.0 1.6 0.00 0.00 0.00 87 1017.3
20260906043017 21 0.0 1.6 0.00 0.00 0.00 87 1017.1
20260906042017 21 0.0 1.6 0.00 0.00 0.00 87 1016.9
20260906041017 21 0.0 3.2 0.00 0.00 0.00 87 1016.8
20260906040017 21 0.0 3.2 0.00 0.00 0.00 87 1016.7
20260906035016 21 0.0 1.6 0.00 0.00 0.00 86 1016.7
20260906034017 21 0.0 3.2 0.00 0.00 0.00 86 1016.7
20260906033017 21 0.0 1.6 0.00 0.03 0.00 86 1016.5
20260906032017 21 0.0 3.2 0.00 0.03 0.00 86 1016.6
20260906031016 21 0.0 1.6 0.00 0.03 0.00 86 1016.7
20260906030016 21 0.0 0.0 0.00 0.03 0.00 86 1016.7
20260906025016 21 0.0 1.6 0.00 0.03 0.00 85 1016.8
20260906024017 21 0.0 1.6 0.00 0.03 0.00 85 1016.6
20260906023016 21 0.0 4.8 0.00 0.03 0.00 85 1016.5
20260906022017 21 0.0 1.6 0.00 0.03 0.00 84 1016.4
20260906021016 21 0.0 1.6 0.00 0.03 0.00 84 1016.3
20260906020017 21 0.0 3.2 0.00 0.03 0.00 84 1016.4
20260906015017 22 0.0 1.6 0.00 0.03 0.00 84 1016.6
20260906014017 22 0.0 1.6 0.00 0.03 0.00 84 1016.6
20260906013017 22 0.0 3.2 0.00 0.03 0.00 84 1016.6
20260906012017 22 0.0 4.8 0.00 0.03 0.00 84 1016.7
20260906011017 22 0.0 1.6 0.00 0.03 0.00 84 1016.6
20260906010017 22 0.0 3.2 0.00 0.03 0.00 83 1016.3
20260906005016 22 0.0 3.2 0.00 0.03 0.00 83 1016.2
20260906004017 22 0.0 3.2 0.00 0.03 0.00 83 1016.0
20260906003017 22 45 1.6 9.7 0.00 0.03 0.00 83 1016.0
20260906002016 22 45 1.6 4.8 0.00 0.03 0.00 83 1016.0
20260906001016 22 0.0 3.2 0.00 0.03 0.00 83 1016.0
20260906000017 22 0.0 4.8 0.00 0.03 0.00 83 1015.9
20260905235017 22 45 1.6 4.8 0.00 0.03 0.00 82 1015.8
20260905234017 22 45 1.6 4.8 0.00 0.03 0.00 81 1016.0
20260905233017 23 45 3.2 6.4 0.00 0.03 0.00 80 1015.9
20260905232017 23 45 1.6 4.8 0.00 0.03 0.00 80 1015.8
20260905231017 23 45 3.2 11.3 0.00 0.03 0.00 79 1015.7
20260905230017 24 45 1.6 4.8 0.00 0.03 0.00 79 1015.6
20260905225016 24 68 1.6 4.8 0.00 0.03 0.00 78 1015.5
20260905224017 25 68 1.6 6.4 0.00 0.03 0.00 77 1015.5
20260905223017 25 0.0 4.8 0.00 0.03 0.00 77 1015.4
20260905222016 26 68 1.6 4.8 0.00 0.03 0.00 76 1015.4
20260905221016 26 0.0 3.2 0.00 0.03 0.00 76 1015.4
20260905220017 26 45 1.6 4.8 0.00 0.03 0.00 75 1015.4
20260905215016 26 68 1.6 3.2 0.00 0.03 0.00 75 1015.3
20260905214016 27 90 1.6 4.8 0.00 0.03 0.00 74 1015.3
20260905213016 27 0.0 3.2 0.00 0.03 0.00 72 1015.1
20260905212017 27 90 1.6 4.8 0.00 0.03 0.00 70 1015.0
20260905211017 27 0.0 3.2 0.00 0.03 0.00 70 1014.9
20260905210017 27 0.0 3.2 0.00 0.03 0.00 71 1014.9
20260905205016 28 23 1.6 6.4 0.00 0.03 0.00 69 1015.2
20260905204016 28 0.0 3.2 0.00 0.03 0.00 70 1015.1
20260905203017 27 0.0 1.6 0.00 0.03 0.00 73 1015.2
20260905202016 27 90 1.6 3.2 0.00 0.03 0.00 75 1015.1
20260905201017 26 45 1.6 4.8 0.00 0.03 0.00 74 1015.1
20260905200016 26 0.0 3.2 0.00 0.03 0.00 77 1015.2
20260905195016 26 0.0 3.2 0.00 0.03 0.00 79 1015.2
20260905194016 25 0.0 3.2 0.00 0.03 0.00 80 1015.4
20260905193017 25 0.0 1.6 0.00 0.03 0.00 81 1015.4
20260905192016 25 0.0 3.2 0.00 0.03 0.00 80 1015.6
20260905191017 25 0.0 3.2 0.00 0.03 0.00 80 1015.6
20260905190016 25 0.0 1.6 0.00 0.03 0.00 81 1015.7
20260905185017 25 0.0 1.6 0.00 0.03 0.00 80 1015.6
20260905184016 25 0.0 1.6 0.00 0.03 0.00 80 1015.7
20260905183016 25 0.0 1.6 0.00 0.03 0.00 81 1015.7
20260905182016 25 0.0 1.6 0.00 0.03 0.00 82 1015.8
20260905181017 25 0.0 1.6 0.00 0.03 0.00 82 1015.8
20260905180017 24 0.0 0.0 0.00 0.03 0.00 82 1015.7
20260905175017 24 0.0 3.2 0.00 0.03 0.00 81 1015.6
20260905174016 24 0.0 1.6 0.00 0.03 0.00 82 1015.6
20260905173016 24 0.0 3.2 0.00 0.03 0.00 82 1015.6
20260905172016 24 68 1.6 3.2 0.00 0.03 0.00 81 1015.6
20260905171016 25 45 1.6 4.8 0.00 0.03 0.00 81 1015.7
20260905170016 25 0.0 3.2 0.00 0.03 0.00 81 1015.8
20260905165017 25 0.0 1.6 0.00 0.03 0.00 82 1015.9
20260905164016 25 0.0 1.6 0.00 0.03 0.00 82 1015.8
20260905163016 25 0.0 3.2 0.00 0.03 0.00 82 1015.8
20260905162017 25 0.0 1.6 0.00 0.03 0.00 82 1015.6
20260905161017 25 0.0 0.0 0.00 0.03 0.00 82 1015.8
20260905160017 25 0.0 1.6 0.00 0.03 0.00 82 1015.8
20260905155016 25 0.0 3.2 0.00 0.03 0.00 82 1015.5
20260905154017 25 0.0 3.2 0.00 0.03 0.00 83 1015.6
20260905153016 25 0 1.6 4.8 0.00 0.03 0.00 83 1015.4
20260905152016 25 45 1.6 4.8 0.00 0.03 0.00 85 1015.3
20260905151016 24 45 1.6 4.8 0.00 0.03 0.00 86 1015.3
20260905150016 23 45 1.6 3.2 0.00 0.03 0.00 87 1015.1
20260905145016 23 0 1.6 3.2 0.00 0.03 0.00 88 1015.2
20260905144016 23 0.0 3.2 0.00 0.03 0.00 89 1015.1
20260905143017 23 0.0 3.2 0.00 0.03 0.00 89 1015.1
20260905142017 23 0 1.6 4.8 0.00 0.03 0.00 90 1015.2
20260905141016 23 0.0 1.6 0.00 0.03 0.00 90 1015.2
20260905140018 23 0.0 3.2 0.00 0.03 0.00 91 1015.0
20260905135016 23 0.0 3.2 0.00 0.03 0.00 91 1015.0
20260905134016 23 0.0 3.2 0.00 0.03 0.00 91 1015.0
20260905133016 22 0.0 0.0 0.00 0.03 0.00 92 1015.1
20260905132016 22 0.0 0.0 0.00 0.03 0.00 92 1015.4
20260905131016 22 0.0 1.6 0.00 0.03 0.00 92 1015.1
20260905130016 22 0.0 1.6 0.00 0.03 0.00 92 1014.7
20260905125016 22 0.0 1.6 0.00 0.03 0.00 92 1014.7
20260905124017 22 0.0 3.2 0.00 0.03 0.00 92 1014.5
20260905123017 22 0.0 1.6 0.00 0.03 0.00 91 1014.3